Hoonah, AK

3:38 AM AKDT on July 26, 2017 (GMT -0800)
Hoonah

Weather History for PAOH - March, 2013

Change the Weather History Date:

Friday, March 1, 2013

  Actual Average Record
Temperature  
Mean Temperature 36 °F -  
Max Temperature 39 °F 35 °F 45 °F (2015)
Min Temperature 32 °F 26 °F 10 °F (2007)
Degree Days  
Heating Degree Days 30    
Moisture  
Dew Point 37 °F    
Average Humidity 100    
Maximum Humidity 100    
Minimum Humidity 93    
Precipitation  
Precipitation 0.03 in - - ()
Sea Level Pressure  
Sea Level Pressure 29.90 in    
Wind  
Wind Speed 5 mph (ENE)    
Max Wind Speed 8 mph    
Max Gust Speed -    
Visibility 9 miles    
Events Rain    
Averages and records for this station are not official NWS values.
T = Trace of Precipitation, MM = Missing Value Source: NWS Daily Summary

Daily Weather History Graph

Daily Weather History Graph

Search for Another Location

Airport or City:

Trip Planner

Search our weather history database for the weather conditions in past years. The results will help you decide how hot, cold, wet, or windy it might be!

Date:

Astronomy

Mar. 01, 2013 Rise Set
Actual Time 6:55 AM AKST 5:33 PM AKST
Civil Twilight 6:15 AM AKST 6:13 PM AKST
Nautical Twilight 5:30 AM AKST 6:58 PM AKST
Astronomical Twilight 4:44 AM AKST 7:45 PM AKST
Moon 11:29 PM AKST (3/1) 7:42 AM AKST (3/1)
Length of Visible Light 11h 57m
Length of Day
10h 38m
Waning Gibbous, 82% of the Moon is Illuminated
Mar 1
Waning Gibbous
Mar 4
Last Quarter
Mar 11
New
Mar 19
First Quarter
Mar 27
Full

Hourly Weather History & Observations

Time (AKST) Temp. Windchill Dew Point Humidity Pressure Visibility Wind Dir Wind Speed Gust Speed Precip Events Conditions
12:56 AM 36.9 °F 33.1 °F 36.9 °F 100% 29.83 in 10.0 mi ESE 4.6 mph - 0.00 in   Overcast
1:21 AM 35.6 °F 29.9 °F 35.6 °F 100% 29.84 in 10.0 mi East 6.9 mph - 0.00 in   Overcast
1:56 AM 36.9 °F 30.7 °F 36.9 °F 100% 29.84 in 10.0 mi East 8.1 mph - 0.00 in   Overcast
2:56 AM 37.4 °F 32.1 °F 37.4 °F 100% 29.84 in 9.0 mi ENE 6.9 mph - N/A   Overcast
3:56 AM 36.9 °F 30.7 °F 36.9 °F 100% 29.84 in 10.0 mi East 8.1 mph - 0.00 in   Overcast
4:18 AM 37.4 °F 33.8 °F 37.4 °F 100% 29.84 in 8.0 mi East 4.6 mph - 0.00 in   Overcast
4:56 AM 37.9 °F 32.7 °F 37.9 °F 100% 29.84 in 10.0 mi ENE 6.9 mph - 0.00 in   Overcast
5:56 AM 37.4 °F 33.8 °F 37.4 °F 100% 29.84 in 6.0 mi ESE 4.6 mph - N/A Rain Light Rain
6:56 AM 36.0 °F - 36.0 °F 100% 29.84 in 10.0 mi Calm Calm - 0.01 in   Overcast
7:56 AM 34.9 °F 32.0 °F 34.9 °F 100% 29.85 in 9.0 mi Variable 3.5 mph - 0.01 in Rain Light Rain
8:56 AM 37.4 °F 34.9 °F 37.4 °F 100% 29.86 in 10.0 mi WNW 3.5 mph - N/A   Overcast
9:34 AM 37.4 °F - 37.4 °F 100% 29.88 in 10.0 mi Calm Calm - N/A   Overcast
9:56 AM 37.9 °F 34.4 °F 37.9 °F 100% 29.89 in 10.0 mi West 4.6 mph - N/A   Overcast
10:56 AM 39.9 °F 37.8 °F 37.9 °F 93% 29.92 in 7.0 mi Variable 3.5 mph - 0.00 in Rain Light Rain
11:20 AM 39.2 °F 37.0 °F 39.2 °F 100% 29.92 in 10.0 mi ENE 3.5 mph - 0.00 in Rain Light Rain
11:56 AM 39.2 °F 37.0 °F 39.2 °F 100% 29.94 in 5.0 mi ENE 3.5 mph - N/A Rain Light Rain
12:32 PM 39.2 °F 37.0 °F 39.2 °F 100% 29.94 in 10.0 mi Variable 3.5 mph - 0.01 in   Overcast
12:37 PM 39.2 °F 37.0 °F 39.2 °F 100% 29.94 in 8.0 mi WNW 3.5 mph - 0.01 in Rain Light Rain
12:56 PM 38.8 °F 35.4 °F 38.8 °F 100% 29.95 in 8.0 mi WNW 4.6 mph - 0.01 in Rain Light Rain
1:56 PM 39.9 °F 36.7 °F 39.9 °F 100% 29.95 in 7.0 mi Variable 4.6 mph - 0.00 in Rain Light Rain
2:56 PM 39.2 °F 37.0 °F 39.2 °F 100% 29.95 in 10.0 mi Variable 3.5 mph - N/A   Overcast
7:56 PM 34.9 °F 32.0 °F 34.9 °F 100% 29.97 in 7.0 mi NE 3.5 mph - N/A   Mostly Cloudy
8:56 PM 34.0 °F - 34.0 °F 100% 29.97 in 10.0 mi Calm Calm - N/A   Partly Cloudy
9:56 PM 32.0 °F - 32.0 °F 100% 29.97 in 10.0 mi Calm Calm - N/A   Overcast
10:56 PM 34.9 °F 32.0 °F 34.9 °F 100% 29.98 in 10.0 mi ESE 3.5 mph - N/A   Overcast
11:56 PM 34.9 °F 30.8 °F 34.9 °F 100% 29.97 in 10.0 mi East 4.6 mph - N/A   Partly Cloudy